Temperature
4 5 5 5 5 5 5 5 5 5 5 6 6 6 6 6 6 7 7 7 7 7 7 7 7 7 7 7 7 7 7 7 7 7 8 8 8 8 8 8 8 8 8
4 4 4 4 4 4 4 4 5 5 5 5 5 5 5 5 6 6 6 6 6 6 6 6 6 6 6 6 6 6 6 6 6 6 7 7 7 7 7 7 7 7 7
4 4 4 4 4 4 4 4 4 4 4 4 4 5 5 5 5 5 5 5 5 5 5 5 5 5 5 5 5 5 5 5 5 5 5 5 6 6 6 6 6 6 7
3 3 3 3 3 3 3 4 4 4 4 4 4 4 4 4 4 4 4 4 4 4 4 4 4 4 4 4 4 4 4 4 4 4 4 4 4 5 5 5 5 5 6
3 3 3 3 3 3 3 3 3 3 3 3 3 3 3 3 3 3 3 3 3 3 3 3 3 3 3 3 2 3 3 3 3 3 3 3 3 3 3 3 3 4 4
3 3 3 2 2 2 2 2 2 2 2 2 2 2 2 2 2 2 2 2 2 2 2 2 2 1 1 1 1 1 1 1 1 1 1 1 1 2 2 2 2 2 2
3 3 2 2 2 2 2 2 2 2 2 2 1 1 1 1 1 1 1 1 1 1 1 1 1 1 1 1 1 1 1 1 0 0 0 0 0 1 1 1 1 1 1
3 2 2 2 2 2 1 1 1 1 1 1 1 1 0 0 0 0 -0 0 0 -0 -0 -0 -0 -0 -0 -0 -0 -0 -0 -0 -0 -0 -1 -1 -1 -1 -1 -1 -0 0 1
3 2 2 2 1 1 1 1 1 1 0 0 0 -0 -0 -0 -1 -1 -1 -1 -1 -1 -1 -1 -1 -1 -1 -1 -1 -1 -1 -1 -1 -1 -1 -1 -1 -1 -1 -1 -1 -1 -1
2 2 2 1 1 1 1 1 0 0 -0 -0 -1 -1 -1 -1 -1 -2 -2 -2 -2 -2 -2 -2 -2 -2 -2 -3 -3 -2 -2 -2 -2 -2 -2 -2 -2 -2 -2 -2 -2 -2 -2
2 2 1 1 1 1 0 0 -0 -0 -0 -1 -1 -1 -2 -2 -2 -3 -3 -3 -3 -3 -2 -3 -3 -3 -3 -3 -3 -3 -4 -4 -3 -3 -3 -2 -2 -2 -2 -2 -3 -3 -3
2 1 1 1 0 0 -0 -0 -0 -1 -1 -1 -1 -2 -2 -2 -3 -3 -3 -4 -4 -4 -3 -3 -3 -4 -4 -4 -4 -4 -4 -4 -4 -4 -4 -3 -3 -3 -3 -3 -3 -3 -3
1 1 1 0 0 -0 -0 -1 -1 -1 -1 -2 -2 -2 -2 -3 -3 -3 -4 -4 -4 -4 -4 -4 -4 -4 -4 -4 -5 -5 -5 -5 -5 -5 -5 -5 -4 -4 -4 -4 -4 -3 -3
1 1 0 0 -0 -0 -1 -1 -1 -2 -2 -2 -3 -3 -3 -4 -4 -4 -4 -4 -5 -5 -5 -5 -5 -5 -5 -5 -5 -5 -5 -6 -6 -6 -6 -5 -5 -5 -5 -5 -5 -4 -4
1 0 0 -0 -1 -1 -1 -2 -2 -2 -3 -3 -4 -4 -4 -4 -5 -5 -5 -5 -5 -5 -5 -5 -5 -5 -5 -5 -5 -6 -6 -6 -6 -6 -6 -6 -6 -6 -6 -6 -6 -5 -5
0 0 -0 -1 -1 -1 -2 -2 -3 -3 -3 -4 -4 -5 -5 -5 -6 -6 -6 -6 -6 -6 -6 -6 -6 -6 -6 -6 -6 -6 -7 -7 -7 -7 -7 -7 -7 -7 -6 -6 -6 -6 -6
-0 -0 -1 -1 -1 -2 -2 -3 -3 -3 -4 -4 -5 -5 -5 -6 -6 -6 -6 -6 -6 -6 -6 -6 -7 -7 -7 -7 -7 -7 -7 -7 -7 -7 -7 -7 -7 -7 -7 -7 -6 -6 -6
-1 -1 -1 -2 -2 -2 -3 -3 -4 -4 -4 -4 -5 -5 -6 -6 -6 -6 -6 -6 -6 -7 -7 -7 -7 -7 -8 -8 -8 -8 -8 -8 -8 -8 -8 -8 -8 -8 -7 -7 -7 -7 -7
-1 -1 -2 -2 -2 -3 -3 -4 -4 -4 -5 -5 -5 -6 -6 -6 -6 -7 -7 -7 -7 -7 -7 -8 -8 -8 -8 -8 -8 -8 -8 -8 -8 -8 -8 -8 -8 -8 -8 -7 -7 -7 -7
-1 -2 -2 -2 -3 -3 -4 -4 -4 -5 -5 -5 -6 -6 -6 -7 -7 -7 -7 -8 -8 -8 -8 -8 -8 -8 -8 -8 -8 -8 -8 -9 -9 -9 -9 -9 -8 -8 -8 -8 -7 -7 -7
-2 -2 -2 -3 -3 -4 -4 -5 -5 -5 -6 -6 -6 -7 -7 -7 -7 -8 -8 -8 -8 -8 -8 -8 -8 -8 -9 -9 -9 -9 -9 -9 -9 -9 -9 -9 -9 -9 -8 -8 -8 -8 -8
-2 -2 -3 -3 -4 -4 -5 -5 -5 -6 -6 -6 -7 -7 -7 -7 -8 -8 -8 -8 -8 -8 -9 -9 -9 -9 -9 -9 -9 -9 -9 -9 -9 -9 -9 -9 -9 -9 -9 -9 -8 -8 -8
-2 -3 -3 -4 -4 -5 -5 -5 -6 -6 -6 -7 -7 -7 -7 -8 -8 -8 -8 -8 -9 -9 -9 -9 -9 -9 -9 -9 -9 -9 -9 -9 -9 -9 -9 -9 -9 -9 -9 -9 -8 -8 -8
-3 -3 -4 -4 -5 -5 -5 -6 -6 -6 -7 -7 -7 -7 -8 -8 -8 -8 -8 -9 -9 -9 -9 -9 -9 -9 -9 -9 -9 -9 -9 -9 -9 -9 -9 -9 -9 -9 -9 -9 -9 -8 -8
-3 -3 -4 -4 -5 -5 -6 -6 -6 -7 -7 -7 -7 -8 -8 -8 -8 -8 -9 -9 -9 -9 -9 -9 -9 -9 -9 -9 -9 -9 -9 -9 -9 -9 -9 -9 -9 -9 -9 -9 -9 -9 -8
-4 -4 -4 -5 -5 -6 -6 -6 -6 -7 -7 -7 -8 -8 -8 -8 -8 -8 -9 -9 -9 -9 -9 -9 -9 -9 -9 -9 -9 -9 -9 -9 -9 -9 -9 -9 -9 -9 -9 -9 -9 -8 -8
Wind_Speed
6 5 6 6 6 6 6 6 6 6 6 6 6 5 5 5 4 2 2 2 2 2 2 1 2 2 2 2 2 3 3 4 8 6 3 3 4 5 5 7 8 9 10
5 5 5 6 6 6 6 6 6 6 7 6 6 6 6 6 5 5 4 3 3 3 3 2 3 2 2 2 2 3 3 3 5 8 5 3 5 5 5 6 6 7 8
3 4 5 6 6 7 6 6 6 6 6 7 7 7 7 6 6 5 5 4 4 4 4 3 3 3 2 3 3 3 3 3 4 5 6 4 4 3 4 5 5 5 6
3 4 5 5 5 5 6 6 6 6 6 7 7 7 6 6 6 6 5 5 4 4 4 3 3 3 3 3 3 3 3 3 4 4 5 4 4 3 3 5 6 5 6
3 4 4 4 4 5 6 6 6 7 7 7 7 7 7 6 6 6 5 5 4 4 4 4 4 5 6 4 3 3 4 3 4 4 5 5 4 3 4 4 7 6 6
2 3 3 4 4 5 5 6 6 7 7 7 7 7 8 7 10 11 7 5 4 4 4 4 4 4 6 7 7 7 6 5 5 5 4 5 6 5 5 5 6 6 6
2 2 3 3 4 5 5 6 6 6 6 7 7 7 7 8 12 12 11 6 6 5 5 5 5 6 7 5 6 8 8 9 8 6 6 6 7 7 6 7 7 7 8
1 2 2 3 3 4 5 5 5 4 4 5 5 6 6 8 12 11 11 7 6 6 6 5 5 6 7 6 5 5 5 6 7 5 5 6 7 6 6 7 8 7 6
1 1 1 2 2 3 4 4 3 3 4 4 4 6 6 8 11 11 10 4 5 6 6 6 6 5 10 11 7 6 6 6 9 10 10 10 11 12 9 6 5 5 7
2 1 0 1 1 2 2 2 2 2 3 4 4 5 5 6 11 12 10 4 4 5 5 6 9 9 11 12 7 6 7 7 7 8 8 9 8 8 10 6 5 6 5
3 2 1 1 1 1 1 1 2 2 3 4 4 4 5 7 10 12 11 5 4 5 5 6 6 12 12 12 10 6 8 9 6 6 6 6 6 5 5 5 5 5 6
3 2 1 1 0 1 1 2 2 2 3 3 4 4 4 6 8 10 12 10 8 4 5 5 6 12 13 12 9 10 12 10 5 5 5 5 6 6 6 6 7 7 8
4 3 2 1 1 1 1 1 2 2 2 2 2 3 4 4 6 11 11 12 11 6 5 9 11 12 11 9 10 12 10 6 5 5 6 6 6 6 7 7 7 7 8
4 3 2 2 1 1 1 1 0 1 1 2 2 3 4 4 5 5 5 6 8 7 6 7 10 10 8 9 9 7 5 5 6 6 7 6 6 6 6 6 7 7 7
5 4 3 2 2 1 0 1 1 2 2 2 2 2 3 4 6 10 8 6 6 5 5 4 4 5 5 5 5 5 5 6 6 6 6 7 7 6 6 6 6 6 7
5 4 3 2 2 1 1 1 2 2 3 4 3 4 4 6 10 11 11 11 11 10 6 4 4 5 6 6 7 7 6 7 7 7 7 7 7 7 7 6 6 6 7
6 5 3 3 2 2 1 1 2 3 3 4 5 6 6 8 9 10 10 10 9 8 4 4 4 5 6 6 6 7 7 7 7 7 7 7 7 7 7 7 7 6 7
5 5 5 4 3 3 2 2 1 1 2 3 4 6 7 8 9 9 9 7 5 5 4 4 5 5 6 6 6 7 7 8 7 8 8 7 7 7 7 7 7 7 7
5 4 4 3 3 3 2 2 1 2 2 3 3 4 6 7 8 8 7 4 4 5 5 5 5 6 6 6 7 7 7 8 8 8 7 8 7 7 7 7 7 9 8
5 6 5 4 3 3 2 2 2 2 2 2 3 3 4 4 4 5 4 4 4 4 5 5 6 6 7 6 7 7 7 8 8 8 8 8 8 7 8 9 8 7 6
4 5 7 4 3 3 3 3 2 2 2 3 3 4 5 3 3 4 5 4 4 5 5 6 6 6 6 6 6 7 8 8 8 8 8 8 8 8 8 8 8 7 6
5 4 4 4 3 3 3 3 2 2 2 3 3 4 6 3 3 4 4 5 5 5 5 6 6 6 6 6 7 7 7 8 8 8 8 8 8 8 8 7 7 7 6
5 5 4 3 3 4 3 2 2 2 3 3 3 3 3 3 4 4 5 5 5 5 6 6 6 6 6 7 7 7 7 8 8 9 9 9 8 8 8 8 8 8 7
5 5 5 4 3 3 3 3 3 3 3 3 3 3 3 4 4 5 5 5 5 6 6 6 7 8 10 10 9 10 10 11 12 10 10 9 9 8 8 7 7 7 7
5 5 5 4 4 4 3 3 3 3 3 3 3 3 4 4 4 5 5 5 6 6 8 8 8 9 11 12 13 13 15 18 17 13 10 8 9 9 8 8 7 7 6
5 5 4 4 4 4 4 3 3 3 3 3 3 4 4 4 4 5 5 5 6 6 7 8 10 12 13 13 14 16 18 18 18 17 12 8 8 7 7 7 7 6 6
Wind_Direction
0 3 5 4 5 9 13 8 5 4 2 1 1 3 5 4 1 10 11 11 12 355 353 344 320 321 306 302 295 283 276 263 263 271 265 271 256 252 258 253 252 250 251
359 5 8 9 10 13 13 7 8 13 12 10 14 20 22 16 14 23 23 21 25 19 13 11 347 344 331 324 312 298 290 284 271 276 274 270 263 268 266 262 258 258 258
3 11 14 14 14 14 12 10 11 15 17 18 22 24 23 20 21 22 25 27 28 29 21 14 355 356 346 338 330 321 309 306 289 282 282 272 266 293 285 280 277 264 272
12 20 19 14 14 13 13 14 15 16 22 23 23 21 19 20 21 18 22 24 21 21 17 14 8 6 346 334 331 325 317 310 303 296 294 289 278 284 282 280 282 271 276
32 28 17 11 17 19 18 17 19 22 25 25 25 22 18 19 22 19 16 16 12 11 8 10 9 8 3 357 349 334 322 308 301 296 294 298 291 297 282 279 278 279 268
52 32 18 20 22 21 19 20 23 23 22 26 27 23 19 16 20 23 21 14 11 11 3 358 355 0 1 359 356 352 344 325 306 293 291 294 294 290 288 288 285 282 273
66 35 24 28 29 22 22 24 22 19 21 24 21 19 13 11 22 25 28 27 20 15 7 359 358 355 352 340 344 346 341 336 323 301 293 290 291 293 288 281 278 279 274
73 34 22 32 32 26 27 23 15 15 20 19 17 11 8 10 19 22 28 32 26 16 7 359 350 340 339 340 336 335 327 325 322 314 292 291 297 296 288 284 279 279 279
112 34 15 37 42 33 26 13 9 18 19 15 11 13 11 3 15 23 26 18 16 6 1 1 355 343 348 350 346 333 330 328 333 332 326 320 319 320 316 306 299 293 290
199 197 108 69 69 44 20 9 4 16 17 14 15 9 6 360 13 18 18 16 7 357 355 352 357 355 351 349 345 336 330 324 325 327 328 325 322 321 324 308 289 284 291
187 165 140 115 123 90 44 25 16 21 22 17 14 5 4 8 9 11 11 10 2 354 349 342 341 348 349 350 349 341 329 327 325 320 316 316 316 316 313 302 288 274 275
165 159 159 151 98 75 66 32 31 33 27 12 9 2 359 356 4 4 7 7 1 351 337 328 333 345 349 349 349 343 339 336 324 319 317 316 316 313 306 297 288 276 264
160 168 174 149 81 61 70 47 30 27 26 0 356 349 343 344 348 358 360 358 356 351 333 338 342 347 349 348 346 345 343 335 325 322 318 311 303 297 300 301 298 287 278
171 180 176 163 139 61 45 40 50 350 340 335 334 330 328 332 330 331 335 339 344 341 335 340 347 350 350 343 341 338 332 324 322 313 308 304 302 301 301 303 303 305 298
179 181 178 177 177 178 244 263 262 248 249 286 278 288 313 322 328 338 342 336 332 331 340 347 346 341 341 336 332 329 328 327 324 313 310 310 310 309 305 303 297 300 295
182 186 185 183 186 186 214 318 324 316 335 339 327 322 319 326 331 339 341 342 343 347 355 347 340 336 336 336 335 333 331 332 326 318 313 311 312 310 307 304 298 297 296
188 187 182 182 186 191 200 227 298 323 335 344 340 335 333 334 337 339 341 344 349 358 2 340 333 331 330 328 327 325 324 324 322 320 317 314 312 308 306 304 302 299 297
185 186 181 185 190 196 205 217 236 278 310 317 329 331 335 338 340 342 345 350 350 356 343 333 328 326 324 322 322 322 322 322 322 322 320 318 315 311 308 304 299 295 298
182 184 182 182 187 193 197 208 230 260 284 300 312 324 336 336 339 346 353 349 333 334 334 330 325 324 323 322 322 320 318 317 317 317 316 316 315 314 311 308 302 301 303
186 188 178 177 183 187 193 209 230 255 278 292 300 308 322 330 334 337 340 330 327 325 325 322 320 318 319 316 315 315 316 315 316 315 315 315 314 313 311 312 309 304 303
179 185 182 177 186 192 200 214 226 241 264 280 287 302 319 326 321 321 322 322 322 320 318 315 313 312 310 307 308 309 310 310 310 309 310 311 311 311 310 310 308 307 306
174 176 177 181 188 197 206 212 218 233 254 273 290 302 314 321 311 309 312 315 316 313 311 308 305 303 302 303 305 306 305 304 305 306 305 306 307 307 307 307 307 308 306
172 174 176 182 191 209 210 204 217 233 249 263 279 292 303 304 302 304 308 311 312 310 309 306 303 302 303 301 298 295 296 298 299 300 302 304 305 306 306 306 305 307 308
174 175 178 184 191 199 202 211 223 235 245 255 267 279 287 293 298 301 303 304 305 302 302 302 300 300 303 306 302 297 292 293 294 292 292 294 298 300 302 301 302 304 306
175 178 181 186 194 201 206 214 226 236 246 257 266 278 286 290 292 295 297 297 300 300 301 302 300 301 303 304 303 301 303 306 307 303 296 294 293 294 296 296 299 302 302
177 180 183 187 195 201 207 217 228 235 244 256 264 271 277 281 286 291 295 297 300 301 302 303 301 302 304 304 303 306 310 313 314 314 310 300 297 296 297 297 297 298 301
Height
1465 1463 1462 1460 1458 1457 1455 1453 1451 1450 1448 1447 1445 1444 1443 1442 1442 1443 1443 1443 1443 1444 1444 1445 1445 1446 1445 1446 1446 1446 1446 1446 1444 1442 1443 1443 1444 1443 1443 1444 1444 1444 1445
1465 1463 1461 1459 1458 1456 1454 1452 1450 1449 1447 1445 1444 1442 1441 1441 1440 1439 1440 1440 1440 1440 1440 1440 1440 1440 1440 1440 1440 1440 1439 1439 1438 1436 1436 1436 1436 1436 1435 1435 1434 1435 1436
1465 1463 1461 1459 1457 1455 1453 1451 1449 1448 1446 1444 1442 1441 1439 1439 1438 1437 1437 1437 1436 1436 1436 1436 1436 1436 1435 1435 1434 1434 1433 1433 1432 1431 1429 1429 1428 1428 1427 1427 1426 1426 1427
1465 1463 1460 1458 1457 1455 1453 1451 1449 1447 1445 1443 1441 1440 1438 1437 1436 1436 1435 1434 1434 1433 1433 1432 1432 1431 1430 1430 1429 1428 1428 1427 1426 1425 1423 1422 1421 1420 1420 1419 1418 1418 1418
1464 1462 1460 1458 1456 1454 1453 1451 1449 1447 1445 1443 1441 1439 1437 1436 1435 1434 1433 1432 1431 1430 1430 1429 1428 1427 1426 1426 1425 1424 1423 1421 1420 1419 1417 1415 1414 1414 1413 1412 1410 1409 1409
1463 1461 1459 1457 1456 1454 1452 1450 1448 1446 1444 1442 1440 1438 1437 1435 1433 1432 1431 1430 1429 1428 1427 1425 1425 1424 1423 1422 1421 1420 1418 1417 1415 1414 1411 1410 1409 1408 1407 1406 1404 1403 1401
1462 1461 1459 1457 1455 1453 1451 1450 1448 1446 1444 1442 1440 1438 1436 1434 1432 1431 1429 1428 1427 1425 1424 1422 1421 1420 1419 1417 1416 1415 1414 1412 1411 1410 1407 1405 1403 1402 1401 1399 1398 1397 1395
1461 1460 1458 1456 1454 1453 1451 1449 1447 1445 1443 1441 1439 1438 1435 1433 1431 1430 1428 1426 1425 1423 1421 1419 1418 1416 1415 1413 1411 1410 1409 1407 1406 1404 1402 1400 1398 1396 1396 1394 1392 1390 1389
1460 1458 1457 1455 1453 1452 1450 1448 1446 1444 1443 1441 1439 1437 1435 1432 1430 1428 1427 1424 1423 1421 1419 1417 1415 1413 1412 1410 1408 1406 1404 1402 1401 1399 1397 1395 1393 1392 1390 1388 1386 1384 1381
1458 1457 1455 1454 1452 1451 1449 1447 1445 1443 1442 1440 1438 1436 1434 1431 1429 1427 1425 1423 1421 1418 1416 1414 1413 1411 1409 1407 1404 1402 1399 1397 1396 1393 1392 1390 1388 1386 1384 1382 1380 1378 1376
1456 1455 1454 1452 1451 1449 1448 1446 1444 1442 1441 1439 1437 1435 1432 1430 1428 1426 1424 1421 1419 1416 1414 1412 1410 1408 1405 1403 1401 1399 1396 1394 1391 1389 1386 1384 1382 1379 1378 1376 1375 1373 1371
1454 1453 1452 1451 1450 1448 1447 1445 1443 1441 1439 1437 1435 1433 1431 1429 1427 1424 1422 1420 1417 1415 1412 1410 1407 1405 1403 1400 1397 1395 1393 1390 1387 1384 1381 1378 1376 1374 1372 1370 1368 1367 1365
1452 1451 1450 1449 1448 1446 1445 1443 1441 1440 1438 1436 1434 1432 1429 1427 1425 1423 1420 1418 1415 1413 1411 1408 1405 1403 1400 1397 1395 1392 1389 1386 1383 1380 1377 1374 1371 1369 1367 1364 1362 1360 1358
1448 1448 1447 1447 1445 1444 1443 1441 1440 1438 1436 1434 1432 1430 1428 1425 1423 1421 1418 1416 1413 1411 1408 1406 1403 1400 1398 1395 1392 1389 1386 1383 1379 1376 1373 1370 1367 1364 1361 1359 1356 1353 1351
1445 1445 1444 1444 1443 1442 1441 1439 1438 1436 1434 1432 1430 1428 1426 1423 1421 1419 1417 1414 1411 1409 1406 1403 1400 1398 1394 1391 1388 1385 1382 1379 1376 1373 1369 1366 1362 1359 1357 1354 1351 1348 1346
1441 1441 1441 1440 1440 1439 1438 1437 1435 1434 1432 1430 1428 1426 1423 1422 1419 1417 1414 1412 1409 1407 1404 1401 1398 1395 1392 1388 1385 1382 1379 1376 1372 1369 1365 1362 1358 1355 1352 1349 1347 1344 1341
1437 1437 1437 1437 1436 1436 1435 1434 1433 1431 1430 1428 1425 1423 1421 1419 1417 1414 1412 1409 1407 1404 1402 1399 1396 1393 1389 1386 1383 1379 1376 1373 1369 1366 1362 1358 1355 1351 1348 1344 1342 1339 1337
1433 1433 1433 1433 1433 1432 1431 1430 1429 1428 1426 1424 1423 1421 1419 1417 1414 1412 1410 1407 1404 1402 1399 1396 1393 1390 1387 1384 1380 1377 1373 1370 1366 1362 1359 1355 1351 1347 1344 1340 1338 1335 1333
1429 1429 1429 1429 1429 1428 1428 1427 1426 1424 1423 1421 1420 1418 1416 1414 1412 1410 1407 1405 1402 1399 1397 1394 1391 1388 1385 1382 1378 1375 1371 1367 1363 1360 1356 1352 1348 1344 1340 1337 1334 1332 1329
1424 1425 1425 1425 1425 1425 1424 1423 1422 1421 1420 1418 1416 1415 1413 1411 1409 1407 1404 1402 1399 1397 1394 1392 1389 1386 1382 1379 1376 1372 1368 1365 1361 1357 1353 1350 1346 1342 1338 1334 1331 1329 1326
1420 1420 1421 1421 1421 1421 1420 1420 1419 1418 1416 1415 1414 1412 1410 1408 1406 1404 1402 1400 1397 1394 1392 1389 1386 1383 1380 1376 1373 1369 1366 1362 1359 1355 1351 1347 1344 1340 1336 1333 1329 1327 1324
1416 1416 1417 1417 1417 1417 1416 1416 1415 1414 1413 1412 1410 1409 1408 1406 1403 1401 1399 1397 1394 1392 1389 1386 1383 1380 1377 1374 1370 1367 1363 1360 1356 1353 1349 1345 1342 1338 1335 1331 1328 1325 1323
1412 1412 1412 1413 1413 1413 1413 1412 1411 1411 1410 1408 1407 1406 1404 1402 1400 1398 1396 1394 1391 1389 1386 1383 1380 1377 1374 1371 1368 1364 1361 1357 1354 1350 1347 1343 1340 1336 1333 1330 1327 1324 1322
1408 1408 1408 1409 1409 1409 1409 1408 1408 1407 1406 1405 1404 1403 1401 1399 1397 1395 1393 1391 1388 1386 1383 1380 1377 1374 1371 1368 1365 1361 1358 1355 1351 1348 1345 1341 1338 1335 1332 1329 1326 1323 1321
1404 1404 1404 1405 1405 1405 1405 1405 1404 1403 1403 1402 1401 1399 1398 1396 1394 1392 1390 1388 1385 1383 1380 1377 1374 1371 1368 1365 1361 1358 1355 1352 1349 1346 1342 1339 1336 1333 1330 1327 1325 1322 1320
1400 1400 1401 1401 1401 1402 1401 1401 1401 1400 1399 1398 1397 1396 1395 1393 1391 1389 1387 1384 1382 1379 1377 1374 1371 1368 1365 1361 1358 1355 1352 1349 1346 1343 1340 1337 1334 1331 1328 1325 1323 1321 1318